[[{"header":{"parameterUnit":"m.s-1","parameterCategory":1,"la1":30.2991,"la2":30.254,"lo1":-89.0895,"lo2":-89.0444,"dy":0.0017,"dx":0.0017,"nx":28,"ny":28,"refTime":"2026-01-10T03:00:00:Z","depth":0,"parameterNumber":2,"parameterNumberName":"U-component_of_WINDS"},"data":[0,0,0,0,0,0,0,0,0,0,0,0,0,0,0,0,0,0,0,0,0,0,0,0,0,0,0,0,0,0,0,0,0,0,0,0,0,0,0,0,0,0,0,0,0,0,0,0,0,0,0,0,0,0,0,0,0,0,1.6,1.6,0,1.6034,1.6034,1.6034,1.6021,1.602,1.6019,1.6019,1.6052,1.6054,1.6056,0,0,0,0,0,0,0,0,0,0,0,0,0,1.5923,1.5924,1.5999,1.6,1.6,1.6034,1.6034,1.6035,1.6021,1.602,1.6019,1.6018,1.6052,1.6054,1.6056,0,0,0,0,0,0,0,0,0,0,0,0,0,1.5956,1.5925,1.5999,1.5998,1.5998,1.6034,1.6034,1.6035,1.6021,1.602,1.6019,1.6018,1.6051,1.6054,1.6056,1.6095,0,0,1.6064,1.6065,0,0,0,0,0,0,0,0,1.5954,1.5959,1.5998,1.5998,1.5998,1.6022,1.6019,1.6055,1.6022,1.6012,1.6019,1.6017,1.6043,1.6046,1.6055,1.6097,1.6098,1.6064,1.6065,1.6066,1.6067,0,0,0,0,0,0,0,1.5952,1.5958,1.6013,1.5998,1.5999,1.5995,1.5999,1.6026,1.6034,1.6013,1.6012,1.6017,1.6043,1.6053,1.6056,1.6099,1.6064,1.6066,1.6067,1.6068,1.6176,1.6177,0,0,0,0,0,0,1.595,1.5956,1.6012,1.6014,1.5973,1.5998,1.6002,1.6015,1.6034,1.6035,1.6018,1.6016,1.6049,1.6053,1.6057,1.6105,1.6066,1.6069,1.607,1.6174,1.6176,1.6177,0,0,0,0,0,0,1.5948,1.5955,1.601,1.5985,1.5992,1.6,1.6016,1.6017,1.6026,1.6037,1.6038,1.6026,1.6048,1.6054,1.6086,1.6106,1.607,1.6072,1.6173,1.6175,1.6177,1.62,0,0,0,0,0,0,1.5946,1.5954,1.5969,1.5985,1.5993,1.6039,1.6017,1.6018,1.6031,1.6029,1.6045,1.6047,1.6048,1.6083,1.6089,1.6109,1.6074,1.6171,1.6173,1.6176,1.6198,1.6203,1.6207,0,0,0,0,0,1.5943,1.5974,1.597,1.5977,1.6012,1.604,1.6045,1.6046,1.6033,1.6048,1.6055,1.6046,1.6103,1.6086,1.6093,1.6114,1.617,1.6173,1.6176,1.6196,1.6202,1.6207,0,0,0,0,0,0,1.5959,1.5976,1.5972,1.6008,1.6023,1.6038,1.6057,1.6052,1.607,1.6068,1.6068,1.6072,1.6105,1.6113,1.6094,1.6153,1.6134,1.6139,1.6147,1.6153,1.6158,1.6155,1.6076,0,0,0,0,0,1.5967,1.5989,1.6002,1.6033,1.6041,1.6048,1.606,1.606,1.6075,1.6081,1.609,1.6105,1.6126,1.614,1.616,1.6199,1.6203,1.6217,1.6222,1.6226,1.6229,1.6252,1.6259,1.6187,1.6187,1.6187,0,0,1.5983,1.5995,1.6008,1.6037,1.6048,1.6071,1.6053,1.6078,1.6095,1.6084,1.6116,1.6124,1.614,1.6177,1.6193,1.6184,1.625,1.623,1.6233,1.6234,1.6256,1.6263,1.6269,1.619,1.6189,1.6189,0,0,1.6024,1.6035,1.6062,1.6075,1.6093,1.6097,1.6104,1.612,1.6125,1.6158,1.6151,1.6171,1.6207,1.622,1.6231,1.628,1.6273,1.6286,1.6311,1.6333,1.6338,1.6343,1.6362,1.6368,1.629,1.629,1.629,0,1.6041,1.6076,1.6077,1.6103,1.6116,1.6109,1.6138,1.6149,1.6173,1.6182,1.6172,1.6218,1.6229,1.6269,1.6281,1.629,1.6298,1.6284,1.6338,1.6343,1.6347,1.6365,1.6371,1.6292,1.6291,1.6291,1.6291,0,1.6097,1.6121,1.6141,1.6165,1.6181,1.6208,1.6214,1.6229,1.6228,1.6234,1.6268,1.628,1.6304,1.6313,1.6312,1.6354,1.6347,1.6337,1.6318,1.6356,1.6372,1.6378,1.6294,1.6293,1.6293,1.6292,0,0,1.6147,1.6173,1.618,1.6192,1.6212,1.6231,1.6259,1.6282,1.6296,1.6313,1.6336,1.6368,1.6359,1.6372,1.6372,1.6392,1.6431,1.6379,1.638,1.6389,1.6479,1.6486,1.6494,1.6427,1.6428,1.6429,1.6477,0,1.619,1.6238,1.6241,1.6285,1.6308,1.6303,1.6327,1.6342,1.6349,1.637,1.6377,1.64,1.6387,1.6395,1.6414,1.6422,1.6449,1.6418,1.6448,1.645,1.6445,1.6502,1.651,1.6555,1.6484,1.6485,1.6486,0,1.6246,1.6266,1.6313,1.6331,1.6341,1.6363,1.6386,1.6405,1.6423,1.6427,1.6442,1.644,1.6469,1.6449,1.6489,1.6469,1.6481,1.6488,1.6489,1.6492,1.647,1.6507,1.6569,1.6576,1.6495,1.6495,1.6494,0,1.6279,1.6317,1.6351,1.6361,1.6383,1.6399,1.6409,1.6425,1.644,1.646,1.647,1.6493,1.6505,1.6523,1.6528,1.6513,1.6568,1.6548,1.6572,1.6572,1.6583,1.6583,1.6649,1.6591,1.6591,1.6591,1.6591,0,1.6327,1.6355,1.6366,1.6386,1.6419,1.6423,1.6455,1.6464,1.6479,1.6501,1.6498,1.6519,1.6524,1.6546,1.655,1.6583,1.6588,1.6593,1.6593,1.6593,1.6593,1.6601,1.6598,1.6593,1.6593,1.6592,1.6592,0,1.6368,1.6377,1.6413,1.6432,1.6437,1.6461,1.6477,1.6497,1.6504,1.6533,1.654,1.6551,1.6577,1.6584,1.6614,1.6617,1.6656,1.6654,1.6651,1.665,1.6674,1.6672,1.6748,1.6759,1.6694,1.6695,1.6695,0,1.6398,1.642,1.6443,1.6458,1.6469,1.6493,1.6509,1.6514,1.653,1.6553,1.6571,1.6597,1.6618,1.666,1.6671,1.6695,1.6693,1.6718,1.6697,1.6696,1.6694,1.6693,1.6696,1.6722,1.6723,1.6724,1.6724,0,1.6451,1.6454,1.6477,1.6501,1.652,1.654,1.6558,1.6571,1.6579,1.6597,1.6624,1.6641,1.6674,1.67,1.6724,1.6735,1.6731,1.6731,1.6738,1.6738,1.6735,1.6738,1.6662,1.6729,1.6728,1.6728,1.6728,1.6728,1.6488,1.6508,1.6527,1.6553,1.6568,1.6586,1.6606,1.6617,1.664,1.6667,1.6669,1.6699,1.6718,1.6751,1.6763,1.6786,1.6779,1.6788,1.6791,1.6793,1.6796,1.6732,1.6791,1.6791,1.6791,1.679,1.679,0,1.654,1.6553,1.6577,1.6604,1.6625,1.662,1.6641,1.6659,1.6685,1.6703,1.6725,1.6757,1.6783,1.6797,1.6823,1.6839,1.6838,1.6846,1.6844,1.6847,1.6801,1.6793,1.6846,1.6846,1.6846,1.6846,1.6846,1.6846,1.657,1.6605,1.6611,1.6653,1.6666,1.6695,1.6708,1.6725,1.674,1.6776,1.6798,1.6807,1.6824,1.6851,1.6875,1.6879,1.6889,1.6897,1.69,1.6856,1.685,1.6845,1.6837,1.6899,1.6899,1.6944,1.6945,1.6945]},{"header":{"parameterUnit":"m.s-1","parameterCategory":1,"la1":30.2991,"la2":30.254,"lo1":-89.0895,"lo2":-89.0444,"dy":0.0017,"dx":0.0017,"nx":28,"ny":28,"refTime":"2026-01-10T03:00:00:Z","depth":0,"parameterNumber":3,"parameterNumberName":"V-component_of_WINDS"},"data":[0,0,0,0,0,0,0,0,0,0,0,0,0,0,0,0,0,0,0,0,0,0,0,0,0,0,0,0,0,0,0,0,0,0,0,0,0,0,0,0,0,0,0,0,0,0,0,0,0,0,0,0,0,0,0,0,0,0,-6.3456,-6.3458,0,-6.3645,-6.3647,-6.3649,-6.3652,-6.365,-6.3648,-6.3645,-6.3833,-6.384,-6.3847,0,0,0,0,0,0,0,0,0,0,0,0,0,-6.3094,-6.3101,-6.3455,-6.3458,-6.346,-6.3644,-6.3647,-6.3649,-6.3653,-6.365,-6.3647,-6.3644,-6.3831,-6.3839,-6.3848,0,0,0,0,0,0,0,0,0,0,0,0,0,-6.3264,-6.3103,-6.3455,-6.3484,-6.3489,-6.3644,-6.3647,-6.365,-6.3653,-6.365,-6.3646,-6.3643,-6.3828,-6.3839,-6.3849,-6.3986,0,0,-6.3882,-6.3887,0,0,0,0,0,0,0,0,-6.3254,-6.3277,-6.3478,-6.3482,-6.3488,-6.3621,-6.3589,-6.3763,-6.3654,-6.3591,-6.3645,-6.3641,-6.3765,-6.3781,-6.3824,-6.3995,-6.4003,-6.3883,-6.389,-6.3894,-6.3897,0,0,0,0,0,0,0,-6.3243,-6.3269,-6.353,-6.348,-6.3487,-6.3487,-6.3507,-6.3622,-6.3695,-6.3596,-6.3597,-6.3619,-6.3767,-6.3814,-6.3828,-6.4006,-6.3883,-6.3892,-6.3899,-6.3903,-6.4303,-6.4307,0,0,0,0,0,0,-6.3226,-6.3259,-6.3524,-6.3536,-6.336,-6.3496,-6.3519,-6.3582,-6.3694,-6.3708,-6.3622,-6.3619,-6.3797,-6.3816,-6.3835,-6.4006,-6.3894,-6.3904,-6.3911,-6.4299,-6.4304,-6.4308,0,0,0,0,0,0,-6.3218,-6.3249,-6.3516,-6.3398,-6.3432,-6.3506,-6.3577,-6.3588,-6.3634,-6.3714,-6.3727,-6.3656,-6.3795,-6.382,-6.395,-6.4012,-6.3909,-6.3919,-6.4294,-6.43,-6.4306,-6.4347,0,0,0,0,0,0,-6.3207,-6.3246,-6.33,-6.3399,-6.3438,-6.3629,-6.3581,-6.3594,-6.3653,-6.3651,-6.3749,-6.3762,-6.3794,-6.3934,-6.3961,-6.4025,-6.3927,-6.4289,-6.4297,-6.4304,-6.434,-6.4354,-6.4365,0,0,0,0,0,-6.3195,-6.3301,-6.3302,-6.3334,-6.3507,-6.3633,-6.3655,-6.3691,-6.3658,-6.3712,-6.3764,-6.3759,-6.4001,-6.3947,-6.3977,-6.4046,-6.4285,-6.4294,-6.4303,-6.4335,-6.4351,-6.4365,0,0,0,0,0,0,-6.3204,-6.3315,-6.3317,-6.3459,-6.3537,-6.3633,-6.3702,-6.3707,-6.3794,-6.3788,-6.3827,-6.385,-6.398,-6.4026,-6.3964,-6.4187,-6.4139,-6.4155,-6.4152,-6.4169,-6.4181,-6.4168,-6.3936,0,0,0,0,0,-6.3223,-6.3318,-6.3409,-6.3525,-6.3565,-6.3627,-6.3683,-6.3705,-6.3786,-6.3818,-6.3879,-6.3957,-6.4051,-6.4112,-6.4203,-6.4347,-6.437,-6.4409,-6.4422,-6.4431,-6.4445,-6.4528,-6.4548,-6.4339,-6.4339,-6.4339,0,0,-6.3262,-6.3335,-6.3391,-6.3529,-6.3592,-6.3689,-6.3654,-6.3757,-6.383,-6.3833,-6.3962,-6.4009,-6.4099,-6.4238,-6.4302,-6.428,-6.4508,-6.4443,-6.4451,-6.4459,-6.454,-6.456,-6.4577,-6.4345,-6.4344,-6.4343,0,0,-6.3385,-6.3448,-6.3555,-6.3619,-6.3716,-6.3758,-6.3783,-6.388,-6.3913,-6.4043,-6.4049,-6.4135,-6.4295,-6.436,-6.4413,-6.4565,-6.4564,-6.4593,-6.4658,-6.4739,-6.4756,-6.477,-6.4827,-6.4847,-6.4606,-6.4606,-6.4606,0,-6.3421,-6.3569,-6.3608,-6.3713,-6.3775,-6.3786,-6.3894,-6.3954,-6.4074,-6.4116,-6.4091,-6.4295,-6.4356,-6.4512,-6.455,-6.4592,-6.4623,-6.4582,-6.475,-6.4766,-6.478,-6.4835,-6.4856,-6.4609,-6.4609,-6.4608,-6.4608,0,-6.361,-6.3713,-6.3787,-6.3907,-6.3977,-6.4082,-6.4138,-6.4203,-6.422,-6.4264,-6.4397,-6.4471,-6.4579,-6.4617,-6.4632,-6.4777,-6.4761,-6.4742,-6.4695,-6.4802,-6.4855,-6.4876,-6.4613,-6.4612,-6.4611,-6.4611,0,0,-6.3742,-6.3886,-6.3913,-6.3969,-6.4079,-6.4158,-6.4265,-6.4373,-6.443,-6.4513,-6.4605,-6.4742,-6.4728,-6.4789,-6.4812,-6.4882,-6.5002,-6.4856,-6.4859,-6.4883,-6.5169,-6.5184,-6.5207,-6.5002,-6.5006,-6.5009,-6.5162,0,-6.3878,-6.4072,-6.4112,-6.4279,-6.4375,-6.4389,-6.4483,-6.456,-6.4605,-6.4692,-6.4741,-6.4839,-6.481,-6.4848,-6.4919,-6.4972,-6.506,-6.4962,-6.5088,-6.5092,-6.5068,-6.5234,-6.5249,-6.539,-6.5183,-6.5186,-6.5189,0,-6.4062,-6.4155,-6.4332,-6.4433,-6.4475,-6.4559,-6.4663,-6.4747,-6.4835,-6.4863,-6.4934,-6.4951,-6.5063,-6.501,-6.5166,-6.5099,-6.5153,-6.5187,-6.5194,-6.5208,-6.5148,-6.5255,-6.5436,-6.5458,-6.522,-6.5218,-6.5216,0,-6.4144,-6.4312,-6.4442,-6.4489,-6.4609,-6.4668,-6.472,-6.4806,-6.4869,-6.496,-6.5002,-6.5103,-6.5159,-6.5237,-6.5281,-6.5238,-6.5435,-6.5385,-6.5462,-6.5462,-6.5504,-6.5501,-6.5698,-6.5535,-6.5535,-6.5534,-6.5534,0,-6.4293,-6.4402,-6.4481,-6.456,-6.4684,-6.4729,-6.4849,-6.49,-6.4977,-6.5067,-6.5083,-6.5167,-6.5219,-6.531,-6.5344,-6.5471,-6.5494,-6.5521,-6.5529,-6.5521,-6.5518,-6.5558,-6.555,-6.554,-6.5539,-6.5538,-6.5537,0,-6.4406,-6.4463,-6.4605,-6.4709,-6.4737,-6.4824,-6.4912,-6.499,-6.5036,-6.515,-6.5179,-6.5251,-6.536,-6.5411,-6.5544,-6.5568,-6.5712,-6.5712,-6.5683,-6.5687,-6.5762,-6.5756,-6.5994,-6.6028,-6.584,-6.5842,-6.5843,0,-6.4498,-6.4583,-6.4697,-6.476,-6.4815,-6.4915,-6.4982,-6.503,-6.5098,-6.5208,-6.5273,-6.5384,-6.5475,-6.5648,-6.5711,-6.5814,-6.5819,-6.5895,-6.5834,-6.5824,-6.5823,-6.5819,-6.5829,-6.5906,-6.5908,-6.5909,-6.5911,0,-6.4657,-6.4682,-6.4778,-6.4887,-6.4967,-6.5053,-6.5137,-6.5188,-6.5249,-6.5325,-6.5439,-6.551,-6.5649,-6.5759,-6.5867,-6.592,-6.5927,-6.593,-6.5954,-6.5947,-6.5928,-6.5942,-6.5716,-6.5924,-6.5923,-6.5922,-6.5921,-6.592,-6.4764,-6.4842,-6.4936,-6.5044,-6.5113,-6.5193,-6.5274,-6.5332,-6.5428,-6.5547,-6.5568,-6.569,-6.5779,-6.5926,-6.5983,-6.6078,-6.606,-6.6093,-6.6103,-6.6111,-6.6117,-6.5912,-6.6097,-6.6097,-6.6096,-6.6096,-6.6096,0,-6.4926,-6.4988,-6.5087,-6.5208,-6.5294,-6.5295,-6.539,-6.5461,-6.5568,-6.5652,-6.5743,-6.5875,-6.5982,-6.6056,-6.6165,-6.6227,-6.6233,-6.6254,-6.6251,-6.6264,-6.6125,-6.6095,-6.6248,-6.6248,-6.6248,-6.6248,-6.6248,-6.6248,-6.502,-6.5154,-6.5191,-6.5359,-6.542,-6.5541,-6.5596,-6.567,-6.5738,-6.5886,-6.5977,-6.6025,-6.6105,-6.6221,-6.632,-6.6339,-6.638,-6.6402,-6.642,-6.6289,-6.6273,-6.6258,-6.623,-6.641,-6.641,-6.6552,-6.6554,-6.6555]}]]